This is the latest recevied weather packets stored in our database for station/object KF8LO-1. If no packets are shown the sender has not sent any weather packets the latest 1 day(s).
| Time | Temp. | Humidity | Pressure | Rain* | Wind** | Luminosity | Snow |
|---|---|---|---|---|---|---|---|
| 1778041922 | 16.67° C | 45% | 0 hPa | 0 mm | 1.79 m/s, 222° | - | - |
| 1778041622 | 16.67° C | 45% | 0 hPa | 0 mm | 4.02 m/s, 268° | - | - |
| 1778041322 | 16.67° C | 45% | 0 hPa | 0 mm | 4.92 m/s, 230° | - | - |
| 1778041022 | 16.67° C | 45% | 0 hPa | 0 mm | 2.24 m/s, 277° | - | - |
| 1778040722 | 16.67° C | 45% | 0 hPa | 0 mm | 3.58 m/s, 230° | - | - |
| 1778040422 | 16.67° C | 44% | 0 hPa | 0 mm | 2.24 m/s, 257° | - | - |
| 1778040122 | 16.67° C | 44% | 0 hPa | 0 mm | 4.02 m/s, 230° | - | - |
| 1778039822 | 16.67° C | 44% | 0 hPa | 0 mm | 1.34 m/s, 191° | - | - |
| 1778039522 | 17.22° C | 43% | 0 hPa | 0 mm | 1.79 m/s, 289° | - | - |
| 1778039222 | 17.22° C | 43% | 0 hPa | 0 mm | 1.79 m/s, 213° | - | - |
| 1778038922 | 17.22° C | 42% | 0 hPa | 0 mm | 1.34 m/s, 223° | - | - |
| 1778038622 | 17.22° C | 42% | 0 hPa | 0 mm | 3.13 m/s, 180° | - | - |
| 1778038322 | 17.22° C | 41% | 0 hPa | 0 mm | 3.13 m/s, 241° | - | - |
| 1778038022 | 17.22° C | 41% | 0 hPa | 0 mm | 0.45 m/s, 233° | - | - |
| 1778037722 | 17.22° C | 40% | 0 hPa | 0 mm | 2.68 m/s, 192° | - | - |
| 1778037422 | 17.22° C | 40% | 0 hPa | 0 mm | 0.89 m/s, 216° | - | - |
| 1778037122 | 17.22° C | 40% | 0 hPa | 0 mm | 1.79 m/s, 239° | - | - |
| 1778036822 | 17.22° C | 40% | 0 hPa | 0 mm | 1.34 m/s, 199° | - | - |
| 1778036522 | 17.22° C | 40% | 0 hPa | 0 mm | 2.24 m/s, 261° | - | - |
| 1778036222 | 17.22° C | 39% | 0 hPa | 0 mm | 4.47 m/s, 212° | - | - |
| 1778035922 | 17.22° C | 39% | 0 hPa | 0 mm | 4.47 m/s, 246° | - | - |
| 1778035622 | 17.22° C | 39% | 0 hPa | 0 mm | 2.68 m/s, 248° | - | - |
| 1778035322 | 17.22° C | 38% | 0 hPa | 0 mm | 3.58 m/s, 257° | - | - |
| 1778035022 | 17.22° C | 38% | 0 hPa | 0 mm | 2.24 m/s, 288° | - | - |
| 1778034722 | 17.22° C | 37% | 0 hPa | 0 mm | 2.68 m/s, 275° | - | - |
* Rain latest hour (hover to see other rain measurements)
** Current wind speed in m/s (hover to see current wind gust speed)